Moses Lake, WA
on Monday, November 19, 2012

Monday
Previous Day Next Day
Daily Summary
 ActualAverageRecord
Temperature
Mean Temperature °F 36°F  
Max Temperature 58°F 44°F 60°F (2013)
Min Temperature 45°F 28°F 9°F (1985)
Degree Days
Heating Degree Days 13 29  
Month to date heating degree days 431 481  
Since 1 July heating degree days 956 1118  
Cooling Degree Days 0 0  
Month to date cooling degree days 0 0  
Year to date cooling degree days 719 615  
Growing Degree Days1 (Base °F )  
Moisture
Dew Point 40°F   
Average Humidity 65    
Maximum Humidity 83    
Minimum Humidity 47    
Precipitation
Precipitation 0.13 in 0.04 in 0.27 in (1997)
Month to date precipitation 0.86 0.73  
Year to date precipitation 7.46 7.20  
Wind
Wind Speed 17 mph   
Max Wind Speed 28 mph   
Max Gust Speed 37 mph   
Visibility 10 miles   
Events Rain   

Key: T is trace of precipitation, MM is missing value
Source: NWS Daily Summary
Time(PST)TemperatureDew PointHumidity Pressure Visibility Wind DirectionWind SpeedGust SpeedPrecipitationEvents Conditions
12:52 AM 45.0°F 39.0°F 80% 29.90 in 10.0 miles SSE 15.0 mph 23.0 mph 0.02 in Rain Light Rain
1:52 AM 46.0°F 39.0°F 76% 29.91 in 10.0 miles South 15.0 mph - 0.01 in   Overcast
2:52 AM 45.0°F 39.0°F 80% 29.89 in 10.0 miles SSE 15.0 mph - 0.01 in   Clear
3:52 AM 46.0°F 39.0°F 76% 29.87 in 10.0 miles SSE 12.7 mph - N/A   Mostly Cloudy
4:52 AM 46.9°F 39.9°F 77% 29.86 in 10.0 miles SE 16.1 mph - 0.00 in Rain Light Rain
5:52 AM 48.0°F 39.9°F 74% 29.71 in 10.0 miles SSE 17.3 mph - 0.00 in Rain Light Rain
6:52 AM 48.0°F 39.9°F 74% 29.70 in 10.0 miles SSE 16.1 mph - 0.00 in   Overcast
7:52 AM 50.0°F 39.0°F 66% 29.69 in 10.0 miles SSE 17.3 mph 23.0 mph N/A   Overcast
8:52 AM 52.0°F 37.9°F 59% 29.69 in 10.0 miles SSE 17.3 mph - N/A   Overcast
9:52 AM 53.1°F 37.9°F 57% 29.67 in 10.0 miles South 18.4 mph - N/A   Overcast
10:52 AM 55.0°F 37.0°F 51% 29.64 in 10.0 miles South 24.2 mph 32.2 mph 0.01 in   Overcast
11:52 AM 55.9°F 37.0°F 49% 29.62 in 10.0 miles South 21.9 mph 29.9 mph N/A   Overcast
12:52 PM 55.9°F 37.0°F 49% 29.58 in 10.0 miles South 21.9 mph 29.9 mph N/A   Overcast
1:52 PM 57.0°F 37.0°F 47% 29.56 in 10.0 miles South 21.9 mph 33.4 mph N/A   Overcast
2:52 PM 57.9°F 37.0°F 46% 29.55 in 10.0 miles South 26.5 mph 34.5 mph 0.00 in   Overcast
3:52 PM 57.9°F 37.9°F 47% 29.56 in 10.0 miles South 24.2 mph 31.1 mph N/A   Overcast
4:52 PM 57.0°F 39.0°F 51% 29.57 in 10.0 miles South 19.6 mph - N/A   Overcast
5:52 PM 55.9°F 42.1°F 60% 29.63 in 7.0 miles South 15.0 mph 21.9 mph 0.01 in Rain Rain
6:52 PM 53.1°F 45.0°F 74% 29.65 in 10.0 miles SSW 12.7 mph 20.7 mph 0.03 in Rain Light Rain
7:52 PM 52.0°F 44.1°F 74% 29.65 in 10.0 miles South 13.8 mph - 0.01 in Rain Light Rain
8:52 PM 51.1°F 42.1°F 71% 29.68 in 10.0 miles South 10.4 mph - 0.02 in Rain Light Rain
9:52 PM 48.9°F 42.1°F 77% 29.68 in 10.0 miles SSE 9.2 mph - 0.01 in Rain Light Rain
10:52 PM 48.9°F 43.0°F 80% 29.71 in 10.0 miles South 10.4 mph - 0.00 in   Overcast
11:52 PM 48.2°F 42.8°F 82% 29.73 in 10.0 miles South 10.4 mph - N/A   Overcast
Moon Phase
Nov. 19 Nov. 20 Nov. 28 Dec. 06 Dec. 13
Sunrise:07:07 AM (PST) Moon Rise:12:03 PM (PST)11/19
Sunset:04:17 PM (PST) Moon Set:11:01 PM (PST)11/19

Copyright © 2014 The Weather Underground, Inc.